DL1GHN-6 Weather Reports


time (UTC)temp
C
wind
direction
speed
KPH
gust
KPH
rain 1hr
cm
rain 24hr
cm
rain mn
cm
humidity
%
barometer
mb
20190420084323 17 36 1.6 4.8 0.00 0.00 0.00 56 1025.7
20190420083824 16 5 0.0 4.8 0.00 0.00 0.00 56 1025.7
20190420083323 16 19 1.6 4.8 0.00 0.00 0.00 59 1025.7
20190420082824 16 30 1.6 4.8 0.00 0.00 0.00 61 1025.7
20190420082324 15 5 0.0 4.8 0.00 0.00 0.00 63 1025.7
20190420081824 15 360 0.0 8.0 0.00 0.00 0.00 65 1025.8
20190420081323 15 22 0.0 4.8 0.00 0.00 0.00 65 1025.8
20190420080824 15 339 1.6 8.0 0.00 0.00 0.00 66 1025.9
20190420080323 14 296 0.0 3.2 0.00 0.00 0.00 66 1025.9
20190420075823 14 290 0.0 1.6 0.00 0.00 0.00 67 1025.8
20190420075324 13 290 0.0 1.6 0.00 0.00 0.00 68 1025.8
20190420074823 13 290 0.0 1.6 0.00 0.00 0.00 69 1025.8
20190420074324 13 288 0.0 3.2 0.00 0.00 0.00 70 1025.9
20190420073823 13 288 0.0 4.8 0.00 0.00 0.00 71 1025.9
20190420073323 13 288 0.0 6.4 0.00 0.00 0.00 71 1025.9
20190420072823 12 294 0.0 3.2 0.00 0.00 0.00 72 1025.9
20190420072324 12 294 0.0 3.2 0.00 0.00 0.00 73 1025.9
20190420071824 12 294 1.6 6.4 0.00 0.00 0.00 72 1025.9
20190420071324 12 284 3.2 4.8 0.00 0.00 0.00 72 1025.8
20190420070824 11 284 1.6 3.2 0.00 0.00 0.00 74 1025.8
20190420070324 11 245 1.6 3.2 0.00 0.00 0.00 76 1025.8
20190420065823 10 245 0.0 1.6 0.00 0.00 0.00 77 1025.8
20190420065324 10 245 0.0 1.6 0.00 0.00 0.00 79 1025.8
20190420064823 10 234 0.0 1.6 0.00 0.00 0.00 80 1025.7
20190420064323 9 234 0.0 1.6 0.00 0.00 0.00 81 1025.8
20190420063824 9 234 0.0 1.6 0.00 0.00 0.00 82 1025.7
20190420063324 8 234 0.0 1.6 0.00 0.00 0.00 83 1025.7
20190420062824 8 234 0.0 0.0 0.00 0.00 0.00 84 1025.7
20190420062324 8 234 0.0 0.0 0.00 0.00 0.00 84 1025.7
20190420061824 8 234 0.0 1.6 0.00 0.00 0.00 85 1025.7
20190420061324 7 234 1.6 3.2 0.00 0.00 0.00 85 1025.7
20190420060823 7 234 0.0 0.0 0.00 0.00 0.00 85 1025.7
20190420060323 7 234 0.0 0.0 0.00 0.00 0.00 85 1025.7
20190420055825 6 234 0.0 0.0 0.00 0.00 0.00 85 1025.7
20190420055323 6 234 0.0 1.6 0.00 0.00 0.00 85 1025.7
20190420054824 6 234 0.0 3.2 0.00 0.00 0.00 85 1025.6
20190420054324 6 234 0.0 0.0 0.00 0.00 0.00 85 1025.6
20190420053824 6 234 0.0 0.0 0.00 0.00 0.00 85 1025.5
20190420053324 6 234 0.0 0.0 0.00 0.00 0.00 85 1025.5
20190420052824 6 234 0.0 3.2 0.00 0.00 0.00 85 1025.5
20190420052323 6 234 1.6 4.8 0.00 0.00 0.00 84 1025.4
20190420051822 6 232 0.0 0.0 0.00 0.00 0.00 84 1025.4
20190420051323 6 232 0.0 0.0 0.00 0.00 0.00 84 1025.3
20190420050823 5 232 0.0 0.0 0.00 0.00 0.00 84 1025.2
20190420050325 5 232 0.0 0.0 0.00 0.00 0.00 84 1025.3
20190420045824 5 232 0.0 0.0 0.00 0.00 0.00 84 1025.3
20190420045323 6 232 0.0 0.0 0.00 0.00 0.00 84 1025.2
20190420044825 6 232 0.0 0.0 0.00 0.00 0.00 83 1025.1
20190420044324 6 232 0.0 0.0 0.00 0.00 0.00 84 1025.2
20190420043824 6 232 0.0 0.0 0.00 0.00 0.00 83 1025.1
20190420043323 6 232 0.0 0.0 0.00 0.00 0.00 83 1025.1
20190420042823 6 232 0.0 0.0 0.00 0.00 0.00 83 1025.1
20190420042322 6 232 0.0 0.0 0.00 0.00 0.00 83 1025.1
20190420041824 6 232 0.0 0.0 0.00 0.00 0.00 83 1025.1
20190420041324 6 232 0.0 1.6 0.00 0.00 0.00 83 1025.1
20190420040824 6 232 0.0 0.0 0.00 0.00 0.00 83 1025.1
20190420040323 6 232 0.0 1.6 0.00 0.00 0.00 83 1025.1
20190420035825 6 232 0.0 0.0 0.00 0.00 0.00 83 1025.1
20190420035323 6 232 0.0 0.0 0.00 0.00 0.00 83 1025.1
20190420034824 6 232 0.0 1.6 0.00 0.00 0.00 82 1025.0
20190420034323 6 232 0.0 0.0 0.00 0.00 0.00 82 1025.0
20190420033824 6 232 0.0 0.0 0.00 0.00 0.00 82 1025.0
20190420033324 7 232 0.0 0.0 0.00 0.00 0.00 82 1025.0
20190420032823 7 232 0.0 0.0 0.00 0.00 0.00 82 1025.0
20190420032324 7 232 0.0 0.0 0.00 0.00 0.00 82 1025.0
20190420031823 7 232 0.0 1.6 0.00 0.00 0.00 82 1025.0
20190420031323 7 231 0.0 3.2 0.00 0.00 0.00 82 1025.1
20190420030824 7 273 0.0 1.6 0.00 0.00 0.00 81 1025.2
20190420030324 7 273 0.0 1.6 0.00 0.00 0.00 81 1025.1
20190420025824 7 273 0.0 0.0 0.00 0.00 0.00 81 1025.1
20190420025057 7 273 0.0 0.0 0.00 0.00 0.00 81 1025.2
20190420024557 7 273 0.0 0.0 0.00 0.00 0.00 80 1025.2
20190420024057 7 273 0.0 0.0 0.00 0.00 0.00 80 1025.2
20190420023557 7 273 0.0 0.0 0.00 0.00 0.00 80 1025.2
20190420023057 7 273 0.0 0.0 0.00 0.00 0.00 80 1025.2
20190420022556 8 273 0.0 0.0 0.00 0.00 0.00 80 1025.3
20190420022058 8 273 0.0 0.0 0.00 0.00 0.00 79 1025.2
20190420021558 8 273 0.0 1.6 0.00 0.00 0.00 79 1025.3
20190420021058 8 273 0.0 0.0 0.00 0.00 0.00 79 1025.2
20190420020558 8 273 0.0 0.0 0.00 0.00 0.00 79 1025.3
20190420020058 8 273 0.0 1.6 0.00 0.00 0.00 78 1025.2
20190420015558 8 273 0.0 0.0 0.00 0.00 0.00 78 1025.3
20190420015057 8 273 0.0 0.0 0.00 0.00 0.00 78 1025.2
20190420014558 8 273 0.0 1.6 0.00 0.00 0.00 78 1025.2
20190420014059 8 273 0.0 0.0 0.00 0.00 0.00 77 1025.1
20190420013557 8 273 0.0 3.2 0.00 0.00 0.00 77 1025.2
20190420013058 8 265 0.0 1.6 0.00 0.00 0.00 76 1025.2
20190420012557 9 265 0.0 0.0 0.00 0.00 0.00 76 1025.1
20190420012057 9 265 0.0 1.6 0.00 0.00 0.00 76 1025.1
20190420011557 9 265 0.0 0.0 0.00 0.00 0.00 76 1025.0
20190420011057 9 265 0.0 1.6 0.00 0.00 0.00 76 1025.0
20190420010557 9 265 0.0 3.2 0.00 0.00 0.00 75 1025.1
20190420010058 10 265 0.0 1.6 0.00 0.00 0.00 75 1025.0
20190420005558 10 265 0.0 1.6 0.00 0.00 0.00 74 1025.1
20190420005058 10 265 0.0 1.6 0.00 0.00 0.00 73 1025.1
20190420004557 10 265 0.0 0.0 0.00 0.00 0.00 72 1025.1
20190420004057 10 265 0.0 0.0 0.00 0.00 0.00 72 1025.1
20190420003557 10 265 0.0 0.0 0.00 0.00 0.00 71 1025.1
20190420003057 11 265 0.0 0.0 0.00 0.00 0.00 70 1025.1
20190420002557 11 265 0.0 1.6 0.00 0.00 0.00 70 1025.1
20190420002058 11 265 0.0 1.6 0.00 0.00 0.00 69 1025.1
20190420001557 11 265 0.0 1.6 0.00 0.00 0.00 68 1025.1
20190420001058 12 265 0.0 1.6 0.00 0.00 0.00 67 1025.2
20190420000557 12 265 0.0 1.6 0.00 0.00 0.00 66 1025.2
20190420000058 12 265 0.0 0.0 0.00 0.00 0.00 65 1025.2
20190419235557 12 265 0.0 4.8 0.00 0.00 0.00 65 1025.1
20190419235059 12 265 0.0 4.8 0.00 0.00 0.00 65 1025.1
20190419234557 12 169 3.2 4.8 0.00 0.00 0.00 64 1025.0
20190419234057 13 277 0.0 4.8 0.00 0.00 0.00 64 1024.8
20190419233557 13 275 0.0 1.6 0.00 0.00 0.00 64 1024.9
20190419233057 13 275 0.0 4.8 0.00 0.00 0.00 63 1024.9
20190419232557 13 238 3.2 4.8 0.00 0.00 0.00 63 1024.9
20190419232058 13 271 3.2 6.4 0.00 0.00 0.00 63 1024.8
20190419231558 13 279 3.2 6.4 0.00 0.00 0.00 63 1024.8
20190419231057 13 281 1.6 6.4 0.00 0.00 0.00 63 1024.8
20190419230558 13 303 3.2 6.4 0.00 0.00 0.00 62 1024.8
20190419230057 13 282 1.6 6.4 0.00 0.00 0.00 63 1024.8
20190419225557 13 286 3.2 6.4 0.00 0.00 0.00 62 1024.8
20190419225057 13 294 3.2 6.4 0.00 0.00 0.00 61 1024.8
20190419224557 14 282 0.0 4.8 0.00 0.00 0.00 60 1024.8
20190419224057 14 282 0.0 4.8 0.00 0.00 0.00 59 1024.8
20190419223558 15 282 1.6 6.4 0.00 0.00 0.00 58 1024.8
20190419223058 15 281 3.2 6.4 0.00 0.00 0.00 56 1024.8
20190419222557 15 281 3.2 6.4 0.00 0.00 0.00 55 1024.8
20190419222058 16 279 4.8 8.0 0.00 0.00 0.00 53 1024.8
20190419221557 16 130 0.0 6.4 0.00 0.00 0.00 47 1024.7
20190419221057 16 105 3.2 9.7 0.00 0.00 0.00 47 1024.7
20190419220558 16 128 1.6 8.0 0.00 0.00 0.00 49 1024.7
20190419220058 15 106 1.6 8.0 0.00 0.00 0.00 50 1024.7
20190419215557 15 88 1.6 4.8 0.00 0.00 0.00 52 1024.7
20190419215058 14 82 3.2 11.3 0.00 0.00 0.00 53 1024.7
20190419214557 13 95 3.2 11.3 0.00 0.00 0.00 58 1024.7
20190419214057 13 101 3.2 8.0 0.00 0.00 0.00 63 1024.7
20190419213558 13 102 4.8 11.3 0.00 0.00 0.00 66 1024.6
20190419213057 13 94 1.6 8.0 0.00 0.00 0.00 67 1024.7
20190419212557 13 93 1.6 4.8 0.00 0.00 0.00 67 1024.7
20190419212058 13 346 0.0 3.2 0.00 0.00 0.00 66 1024.6
20190419211558 13 317 0.0 0.0 0.00 0.00 0.00 67 1024.6
20190419211058 13 317 0.0 1.6 0.00 0.00 0.00 67 1024.6
20190419210558 13 317 0.0 0.0 0.00 0.00 0.00 67 1024.5
20190419210058 13 317 0.0 1.6 0.00 0.00 0.00 67 1024.6
20190419205557 13 316 0.0 1.6 0.00 0.00 0.00 67 1024.5
20190419205058 13 313 0.0 3.2 0.00 0.00 0.00 68 1024.5
20190419204557 13 313 0.0 0.0 0.00 0.00 0.00 68 1024.4
20190419204057 14 313 0.0 0.0 0.00 0.00 0.00 67 1024.5
20190419203557 14 313 0.0 0.0 0.00 0.00 0.00 66 1024.4
20190419203059 14 313 0.0 0.0 0.00 0.00 0.00 66 1024.4
20190419202557 14 313 0.0 0.0 0.00 0.00 0.00 65 1024.5
20190419202056 14 313 0.0 4.8 0.00 0.00 0.00 65 1024.4
20190419201557 14 315 0.0 4.8 0.00 0.00 0.00 65 1024.4
20190419201057 15 92 0.0 1.6 0.00 0.00 0.00 63 1024.4
20190419200556 15 92 0.0 1.6 0.00 0.00 0.00 62 1024.3
20190419200058 15 92 0.0 1.6 0.00 0.00 0.00 61 1024.3
20190419195558 15 92 0.0 1.6 0.00 0.00 0.00 60 1024.3
20190419195057 15 92 0.0 1.6 0.00 0.00 0.00 58 1024.2
20190419194557 15 92 0.0 3.2 0.00 0.00 0.00 57 1024.2
20190419194057 15 92 1.6 4.8 0.00 0.00 0.00 62 1024.1
20190419193558 15 65 1.6 4.8 0.00 0.00 0.00 65 1024.1
20190419193057 15 91 0.0 1.6 0.00 0.00 0.00 66 1024.1
20190419192557 15 91 0.0 0.0 0.00 0.00 0.00 65 1024.1
20190419192058 15 91 0.0 0.0 0.00 0.00 0.00 64 1024.1
20190419191558 15 91 0.0 0.0 0.00 0.00 0.00 64 1024.1
20190419191057 16 91 0.0 0.0 0.00 0.00 0.00 63 1024.1
20190419190558 16 91 0.0 1.6 0.00 0.00 0.00 62 1024.1
20190419190058 16 91 1.6 4.8 0.00 0.00 0.00 61 1024.0
20190419185558 16 24 0.0 1.6 0.00 0.00 0.00 61 1024.0
20190419185057 17 24 0.0 0.0 0.00 0.00 0.00 59 1023.9
20190419184557 17 24 0.0 0.0 0.00 0.00 0.00 58 1023.9
20190419184057 17 24 0.0 0.0 0.00 0.00 0.00 57 1023.9
20190419183557 18 24 0.0 1.6 0.00 0.00 0.00 56 1023.9
20190419183056 18 24 0.0 0.0 0.00 0.00 0.00 56 1023.9
20190419182558 19 24 0.0 0.0 0.00 0.00 0.00 54 1023.8
20190419182057 19 24 0.0 0.0 0.00 0.00 0.00 52 1023.8
20190419181558 20 24 0.0 0.0 0.00 0.00 0.00 50 1023.7
20190419181058 20 24 0.0 1.6 0.00 0.00 0.00 48 1023.7
20190419180558 20 24 0.0 0.0 0.00 0.00 0.00 44 1023.7
20190419180058 21 24 0.0 1.6 0.00 0.00 0.00 44 1023.7
20190419175557 21 24 0.0 1.6 0.00 0.00 0.00 43 1023.6
20190419175058 21 23 0.0 1.6 0.00 0.00 0.00 42 1023.6
20190419174558 21 27 0.0 4.8 0.00 0.00 0.00 41 1023.6
20190419174057 21 9 1.6 4.8 0.00 0.00 0.00 41 1023.6
20190419173558 21 310 3.2 6.4 0.00 0.00 0.00 40 1023.5
20190419173058 22 335 0.0 3.2 0.00 0.00 0.00 40 1023.5
20190419172557 22 360 1.6 6.4 0.00 0.00 0.00 39 1023.5
20190419172058 22 355 1.6 9.7 0.00 0.00 0.00 40 1023.5
20190419171558 22 10 0.0 4.8 0.00 0.00 0.00 40 1023.5
20190419171058 22 348 0.0 4.8 0.00 0.00 0.00 39 1023.4
20190419170557 22 344 1.6 6.4 0.00 0.00 0.00 39 1023.4
20190419170058 22 5 3.2 12.9 0.00 0.00 0.00 39 1023.4
20190419165558 22 349 3.2 11.3 0.00 0.00 0.00 38 1023.5
20190419165057 22 355 3.2 8.0 0.00 0.00 0.00 38 1023.6
20190419164558 23 5 3.2 12.9 0.00 0.00 0.00 38 1023.5
20190419164057 23 346 1.6 9.7 0.00 0.00 0.00 40 1023.5
20190419163557 23 24 4.8 11.3 0.00 0.00 0.00 39 1023.5
20190419163057 23 351 3.2 12.9 0.00 0.00 0.00 40 1023.6
20190419162557 23 21 1.6 11.3 0.00 0.00 0.00 39 1023.6
20190419162057 23 302 3.2 8.0 0.00 0.00 0.00 40 1023.6
20190419161557 23 345 1.6 9.7 0.00 0.00 0.00 39 1023.6
20190419161057 24 12 4.8 8.0 0.00 0.00 0.00 40 1023.6
20190419160557 24 355 1.6 11.3 0.00 0.00 0.00 39 1023.6
20190419160057 24 24 3.2 12.9 0.00 0.00 0.00 39 1023.6
20190419155557 24 280 4.8 9.7 0.00 0.00 0.00 40 1023.6
20190419155057 24 355 1.6 8.0 0.00 0.00 0.00 40 1023.5
20190419154557 24 355 4.8 14.5 0.00 0.00 0.00 39 1023.5
20190419154057 24 344 3.2 11.3 0.00 0.00 0.00 42 1023.6
20190419153558 24 9 6.4 16.1 0.00 0.00 0.00 41 1023.6
20190419153058 24 360 3.2 8.0 0.00 0.00 0.00 41 1023.6
20190419152557 24 360 1.6 11.3 0.00 0.00 0.00 39 1023.6
20190419152058 24 324 8.0 14.5 0.00 0.00 0.00 40 1023.6
20190419151558 24 355 3.2 12.9 0.00 0.00 0.00 40 1023.7
20190419151056 24 329 3.2 11.3 0.00 0.00 0.00 41 1023.8
20190419150558 23 342 3.2 9.7 0.00 0.00 0.00 41 1023.8
20190419150058 23 13 0.0 8.0 0.00 0.00 0.00 42 1023.8
20190419145558 23 355 3.2 8.0 0.00 0.00 0.00 42 1023.8
20190419145057 24 23 4.8 9.7 0.00 0.00 0.00 40 1023.9
20190419144558 24 344 4.8 9.7 0.00 0.00 0.00 43 1023.9
20190419144058 23 9 6.4 12.9 0.00 0.00 0.00 43 1023.9
20190419143557 23 12 4.8 14.5 0.00 0.00 0.00 41 1023.9
20190419143058 23 30 8.0 16.1 0.00 0.00 0.00 41 1024.0
20190419142558 23 5 3.2 9.7 0.00 0.00 0.00 42 1024.0
20190419142057 23 32 3.2 12.9 0.00 0.00 0.00 41 1024.1
20190419141558 23 355 4.8 11.3 0.00 0.00 0.00 41 1024.1
20190419141058 23 10 0.0 6.4 0.00 0.00 0.00 43 1024.1
20190419140557 23 20 1.6 11.3 0.00 0.00 0.00 40 1024.2
20190419140058 23 348 1.6 12.9 0.00 0.00 0.00 40 1024.2
20190419135557 23 49 0.0 11.3 0.00 0.00 0.00 44 1024.2
20190419135058 23 44 4.8 11.3 0.00 0.00 0.00 38 1024.2
20190419134557 23 22 3.2 11.3 0.00 0.00 0.00 42 1024.4
20190419134057 23 40 0.0 9.7 0.00 0.00 0.00 42 1024.4
20190419133557 23 59 4.8 12.9 0.00 0.00 0.00 44 1024.4
20190419133057 23 347 4.8 12.9 0.00 0.00 0.00 45 1024.3
20190419132557 23 49 3.2 12.9 0.00 0.00 0.00 45 1024.4
20190419132057 23 19 3.2 9.7 0.00 0.00 0.00 47 1024.5
20190419131557 23 329 3.2 12.9 0.00 0.00 0.00 45 1024.5
20190419131057 23 350 3.2 12.9 0.00 0.00 0.00 42 1024.6
20190419130558 23 13 1.6 6.4 0.00 0.00 0.00 45 1024.6
20190419130058 23 19 4.8 11.3 0.00 0.00 0.00 46 1024.7
20190419125558 23 296 3.2 6.4 0.00 0.00 0.00 45 1024.7
20190419125057 23 17 3.2 14.5 0.00 0.00 0.00 46 1024.7
20190419124557 22 54 1.6 11.3 0.00 0.00 0.00 48 1024.8
20190419124058 22 327 3.2 8.0 0.00 0.00 0.00 45 1024.8
20190419123557 22 345 4.8 9.7 0.00 0.00 0.00 45 1024.8
20190419123056 22 22 3.2 12.9 0.00 0.00 0.00 46 1024.9
20190419122557 22 355 3.2 12.9 0.00 0.00 0.00 49 1024.9
20190419122056 22 270 1.6 12.9 0.00 0.00 0.00 45 1024.9
20190419121558 22 5 3.2 8.0 0.00 0.00 0.00 48 1024.8
20190419121058 22 47 1.6 8.0 0.00 0.00 0.00 47 1024.9
20190419120557 22 334 4.8 11.3 0.00 0.00 0.00 48 1024.9
20190419120058 22 74 1.6 8.0 0.00 0.00 0.00 49 1024.9
20190419115558 22 341 4.8 9.7 0.00 0.00 0.00 48 1024.9
20190419115057 22 21 3.2 8.0 0.00 0.00 0.00 48 1024.9
20190419114559 22 9 4.8 11.3 0.00 0.00 0.00 50 1025.0
20190419114058 22 329 3.2 9.7 0.00 0.00 0.00 48 1024.9
20190419113558 22 360 1.6 4.8 0.00 0.00 0.00 50 1025.0
20190419113059 22 355 3.2 8.0 0.00 0.00 0.00 48 1025.0
20190419112558 22 360 3.2 8.0 0.00 0.00 0.00 50 1025.0
20190419112059 21 9 1.6 11.3 0.00 0.00 0.00 50 1025.0
20190419111558 21 360 3.2 11.3 0.00 0.00 0.00 49 1025.1
20190419111058 21 326 0.0 11.3 0.00 0.00 0.00 48 1025.1
20190419110558 21 9 1.6 8.0 0.00 0.00 0.00 49 1025.1
20190419110058 21 37 1.6 9.7 0.00 0.00 0.00 50 1025.2
20190419105558 21 57 3.2 6.4 0.00 0.00 0.00 47 1025.2
20190419105057 21 355 1.6 6.4 0.00 0.00 0.00 49 1025.2
20190419104557 21 11 1.6 11.3 0.00 0.00 0.00 48 1025.2
20190419104056 21 340 0.0 8.0 0.00 0.00 0.00 51 1025.3
20190419103557 21 5 0.0 6.4 0.00 0.00 0.00 52 1025.3
20190419103056 20 351 1.6 4.8 0.00 0.00 0.00 55 1025.3
20190419102558 20 355 0.0 8.0 0.00 0.00 0.00 52 1025.3
20190419102057 20 294 3.2 4.8 0.00 0.00 0.00 52 1025.3
20190419101557 20 25 1.6 6.4 0.00 0.00 0.00 53 1025.3
20190419101058 20 53 3.2 8.0 0.00 0.00 0.00 52 1025.4
20190419100557 20 75 1.6 6.4 0.00 0.00 0.00 54 1025.4
20190419100057 19 49 0.0 9.7 0.00 0.00 0.00 52 1025.4
20190419095558 19 326 1.6 6.4 0.00 0.00 0.00 56 1025.5
20190419095057 19 61 1.6 6.4 0.00 0.00 0.00 54 1025.6
20190419094558 18 42 0.0 6.4 0.00 0.00 0.00 56 1025.6
20190419094058 18 328 1.6 8.0 0.00 0.00 0.00 56 1025.6
20190419093557 18 11 1.6 4.8 0.00 0.00 0.00 56 1025.6
20190419093057 18 343 0.0 6.4 0.00 0.00 0.00 57 1025.6
20190419092557 17 286 1.6 6.4 0.00 0.00 0.00 58 1025.7
20190419092057 17 326 0.0 6.4 0.00 0.00 0.00 57 1025.6
20190419091557 17 329 0.0 3.2 0.00 0.00 0.00 57 1025.6
20190419091057 17 261 1.6 4.8 0.00 0.00 0.00 58 1025.6
20190419090556 17 294 0.0 3.2 0.00 0.00 0.00 59 1025.7
20190419090057 17 296 0.0 6.4 0.00 0.00 0.00 60 1025.7
20190419085557 16 302 1.6 4.8 0.00 0.00 0.00 60 1025.7
20190419085058 16 296 0.0 4.8 0.00 0.00 0.00 61 1025.7